Time,TemperatureF,DewpointF,PressureIn,WindDirection,WindDirectionDegrees,WindSpeedMPH,WindSpeedGustMPH,Humidity,HourlyPrecipIn,Conditions,Clouds,dailyrainin,SoftwareType,DateUTC
2013-05-31 00:01:00,70.8,62.5,30.09,ENE,72,1.0,1.0,75,0.00,,,0.00,Wunderground v.1.15,2013-05-31 04:01:00,
2013-05-31 00:03:00,70.7,62.4,30.09,ENE,72,1.0,1.0,75,0.00,,,0.00,Wunderground v.1.15,2013-05-31 04:03:00,
2013-05-31 00:06:00,70.5,62.2,30.09,ENE,72,1.0,1.0,75,0.00,,,0.00,Wunderground v.1.15,2013-05-31 04:06:00,
2013-05-31 00:07:00,70.4,62.5,30.09,ENE,72,0.0,1.0,76,0.00,,,0.00,Wunderground v.1.15,2013-05-31 04:07:00,
2013-05-31 00:11:00,70.2,62.3,30.09,ENE,73,0.0,0.0,76,0.00,,,0.00,Wunderground v.1.15,2013-05-31 04:11:00,
2013-05-31 00:16:00,69.8,62.3,30.09,ENE,72,0.0,1.0,77,0.00,,,0.00,Wunderground v.1.15,2013-05-31 04:16:00,
2013-05-31 00:21:00,69.4,62.2,30.09,ENE,72,0.0,0.0,78,0.00,,,0.00,Wunderground v.1.15,2013-05-31 04:21:00,
2013-05-31 00:26:00,69.1,61.9,30.09,ENE,72,0.0,0.0,78,0.00,,,0.00,Wunderground v.1.15,2013-05-31 04:26:00,
2013-05-31 00:32:00,68.7,61.9,30.09,East,97,0.0,2.0,79,0.00,,,0.00,Wunderground v.1.15,2013-05-31 04:32:00,
2013-05-31 00:37:00,68.3,61.9,30.09,ESE,105,1.0,2.0,80,0.00,,,0.00,Wunderground v.1.15,2013-05-31 04:37:00,
2013-05-31 00:43:00,68.0,61.9,30.09,ESE,105,1.0,2.0,81,0.00,,,0.00,Wunderground v.1.15,2013-05-31 04:43:00,
2013-05-31 00:49:00,67.7,61.7,30.09,ESE,105,0.0,2.0,81,0.00,,,0.00,Wunderground v.1.15,2013-05-31 04:49:00,
2013-05-31 00:54:00,67.6,61.6,30.09,ESE,105,1.0,1.0,81,0.00,,,0.00,Wunderground v.1.15,2013-05-31 04:54:00,
2013-05-31 01:00:00,67.5,61.5,30.09,ESE,105,1.0,1.0,81,0.00,,,0.00,Wunderground v.1.15,2013-05-31 05:00:00,
2013-05-31 01:05:00,67.3,61.3,30.09,ESE,105,1.0,3.0,81,0.00,,,0.00,Wunderground v.1.15,2013-05-31 05:05:00,
2013-05-31 01:10:00,67.2,61.5,30.09,ESE,105,0.0,3.0,82,0.00,,,0.00,Wunderground v.1.15,2013-05-31 05:10:00,
2013-05-31 01:16:00,67.2,61.2,30.09,ESE,105,1.0,3.0,81,0.00,,,0.00,Wunderground v.1.15,2013-05-31 05:16:00,
2013-05-31 01:21:00,67.0,61.0,30.09,ESE,105,1.0,3.0,81,0.00,,,0.00,Wunderground v.1.15,2013-05-31 05:21:00,
2013-05-31 01:26:00,66.6,60.9,30.09,ESE,105,1.0,3.0,82,0.00,,,0.00,Wunderground v.1.15,2013-05-31 05:26:00,
2013-05-31 01:31:00,66.3,61.0,30.10,ESE,105,0.0,3.0,83,0.00,,,0.00,Wunderground v.1.15,2013-05-31 05:31:00,
2013-05-31 01:36:00,66.0,60.7,30.10,ESE,105,0.0,3.0,83,0.00,,,0.00,Wunderground v.1.15,2013-05-31 05:36:00,
2013-05-31 01:41:00,65.6,60.3,30.10,NNE,27,0.0,3.0,83,0.00,,,0.00,Wunderground v.1.15,2013-05-31 05:41:00,
2013-05-31 01:46:00,65.0,60.4,30.10,NNE,27,1.0,3.0,85,0.00,,,0.00,Wunderground v.1.15,2013-05-31 05:46:00,
2013-05-31 01:51:00,64.7,60.1,30.10,ENE,60,1.0,3.0,85,0.00,,,0.00,Wunderground v.1.15,2013-05-31 05:51:00,
2013-05-31 01:56:00,64.5,59.9,30.10,ENE,60,1.0,3.0,85,0.00,,,0.00,Wunderground v.1.15,2013-05-31 05:56:00,
2013-05-31 02:01:00,64.4,60.1,30.10,ENE,60,0.0,3.0,86,0.00,,,0.00,Wunderground v.1.15,2013-05-31 06:01:00,
2013-05-31 02:06:00,64.2,59.9,30.10,ENE,60,0.0,3.0,86,0.00,,,0.00,Wunderground v.1.15,2013-05-31 06:06:00,
2013-05-31 02:12:00,64.0,59.7,30.10,ENE,60,0.0,3.0,86,0.00,,,0.00,Wunderground v.1.15,2013-05-31 06:12:00,
2013-05-31 02:17:00,63.6,59.3,30.10,WSW,250,0.0,3.0,86,0.00,,,0.00,Wunderground v.1.15,2013-05-31 06:17:00,
2013-05-31 02:22:00,63.4,59.5,30.10,SSW,203,1.0,3.0,87,0.00,,,0.00,Wunderground v.1.15,2013-05-31 06:22:00,
2013-05-31 02:27:00,63.2,59.3,30.10,SSW,201,1.0,3.0,87,0.00,,,0.00,Wunderground v.1.15,2013-05-31 06:27:00,
2013-05-31 02:32:00,63.2,59.3,30.10,South,177,0.0,3.0,87,0.00,,,0.00,Wunderground v.1.15,2013-05-31 06:32:00,
2013-05-31 02:38:00,63.2,59.6,30.10,South,177,0.0,3.0,88,0.00,,,0.00,Wunderground v.1.15,2013-05-31 06:38:00,
2013-05-31 02:43:00,63.0,59.1,30.10,South,177,0.0,3.0,87,0.00,,,0.00,Wunderground v.1.15,2013-05-31 06:43:00,
2013-05-31 02:48:00,62.9,59.3,30.10,South,177,0.0,3.0,88,0.00,,,0.00,Wunderground v.1.15,2013-05-31 06:48:00,
2013-05-31 02:53:00,62.9,59.3,30.10,ESE,110,0.0,3.0,88,0.00,,,0.00,Wunderground v.1.15,2013-05-31 06:53:00,
2013-05-31 02:58:00,62.9,59.0,30.09,ESE,121,1.0,3.0,87,0.00,,,0.00,Wunderground v.1.15,2013-05-31 06:58:00,
2013-05-31 03:03:00,62.9,59.0,30.10,ESE,121,1.0,3.0,87,0.00,,,0.00,Wunderground v.1.15,2013-05-31 07:03:00,
2013-05-31 03:08:00,62.9,59.0,30.09,ESE,121,0.0,3.0,87,0.00,,,0.00,Wunderground v.1.15,2013-05-31 07:08:00,
2013-05-31 03:14:00,62.9,59.0,30.09,ESE,121,0.0,3.0,87,0.00,,,0.00,Wunderground v.1.15,2013-05-31 07:14:00,
2013-05-31 03:19:00,62.7,58.8,30.09,ESE,121,0.0,3.0,87,0.00,,,0.00,Wunderground v.1.15,2013-05-31 07:19:00,
2013-05-31 03:25:00,62.5,58.6,30.10,ESE,121,0.0,3.0,87,0.00,,,0.00,Wunderground v.1.15,2013-05-31 07:25:00,
2013-05-31 03:30:00,62.3,58.7,30.10,ESE,121,0.0,3.0,88,0.00,,,0.00,Wunderground v.1.15,2013-05-31 07:30:00,
2013-05-31 03:35:00,62.1,58.5,30.10,ESE,121,0.0,3.0,88,0.00,,,0.00,Wunderground v.1.15,2013-05-31 07:35:00,
2013-05-31 03:41:00,61.9,58.3,30.10,ESE,121,0.0,3.0,88,0.00,,,0.00,Wunderground v.1.15,2013-05-31 07:41:00,
2013-05-31 03:46:00,61.8,58.2,30.10,ESE,122,0.0,3.0,88,0.00,,,0.00,Wunderground v.1.15,2013-05-31 07:46:00,
2013-05-31 03:51:00,61.7,58.1,30.10,ESE,122,0.0,3.0,88,0.00,,,0.00,Wunderground v.1.15,2013-05-31 07:51:00,
2013-05-31 03:56:00,61.7,58.1,30.10,ESE,122,0.0,3.0,88,0.00,,,0.00,Wunderground v.1.15,2013-05-31 07:56:00,
2013-05-31 04:01:00,61.6,58.0,30.10,ESE,122,0.0,3.0,88,0.00,,,0.00,Wunderground v.1.15,2013-05-31 08:01:00,
2013-05-31 04:06:00,61.4,57.8,30.10,ESE,122,0.0,3.0,88,0.00,,,0.00,Wunderground v.1.15,2013-05-31 08:06:00,
2013-05-31 04:11:00,61.3,57.7,30.10,ESE,121,0.0,3.0,88,0.00,,,0.00,Wunderground v.1.15,2013-05-31 08:11:00,
2013-05-31 04:17:00,61.1,57.5,30.10,ESE,122,0.0,3.0,88,0.00,,,0.00,Wunderground v.1.15,2013-05-31 08:17:00,
2013-05-31 04:23:00,61.0,57.4,30.10,ESE,122,0.0,3.0,88,0.00,,,0.00,Wunderground v.1.15,2013-05-31 08:23:00,
2013-05-31 04:28:00,60.8,57.5,30.10,ESE,122,0.0,3.0,89,0.00,,,0.00,Wunderground v.1.15,2013-05-31 08:28:00,
2013-05-31 04:33:00,60.8,57.5,30.10,ESE,122,0.0,3.0,89,0.00,,,0.00,Wunderground v.1.15,2013-05-31 08:33:00,
2013-05-31 04:39:00,60.6,57.0,30.10,ESE,122,0.0,3.0,88,0.00,,,0.00,Wunderground v.1.15,2013-05-31 08:39:00,
2013-05-31 04:45:00,60.4,57.1,30.10,ESE,122,0.0,3.0,89,0.00,,,0.00,Wunderground v.1.15,2013-05-31 08:45:00,
2013-05-31 04:50:00,60.3,57.0,30.10,ESE,122,0.0,3.0,89,0.00,,,0.00,Wunderground v.1.15,2013-05-31 08:50:00,
2013-05-31 04:55:00,60.0,56.7,30.10,ESE,122,0.0,3.0,89,0.00,,,0.00,Wunderground v.1.15,2013-05-31 08:55:00,
2013-05-31 05:00:00,59.9,57.0,30.10,ESE,122,0.0,3.0,90,0.00,,,0.00,Wunderground v.1.15,2013-05-31 09:00:00,
2013-05-31 05:06:00,59.8,56.9,30.10,ESE,122,0.0,3.0,90,0.00,,,0.00,Wunderground v.1.15,2013-05-31 09:06:00,
2013-05-31 05:11:00,59.7,56.8,30.10,ESE,122,0.0,3.0,90,0.00,,,0.00,Wunderground v.1.15,2013-05-31 09:11:00,
2013-05-31 05:16:00,59.4,56.2,30.10,ESE,122,0.0,3.0,89,0.00,,,0.00,Wunderground v.1.15,2013-05-31 09:16:00,
2013-05-31 05:22:00,59.4,56.5,30.10,ESE,122,0.0,3.0,90,0.00,,,0.00,Wunderground v.1.15,2013-05-31 09:22:00,
2013-05-31 05:28:00,59.3,56.4,30.10,ESE,122,0.0,3.0,90,0.00,,,0.00,Wunderground v.1.15,2013-05-31 09:28:00,
2013-05-31 05:34:00,59.3,56.4,30.10,ESE,122,0.0,3.0,90,0.00,,,0.00,Wunderground v.1.15,2013-05-31 09:34:00,
2013-05-31 05:39:00,59.2,56.3,30.10,ESE,122,0.0,3.0,90,0.00,,,0.00,Wunderground v.1.15,2013-05-31 09:39:00,
2013-05-31 05:44:00,59.1,56.2,30.10,ESE,122,0.0,3.0,90,0.00,,,0.00,Wunderground v.1.15,2013-05-31 09:44:00,
2013-05-31 05:50:00,58.9,56.0,30.10,ESE,122,0.0,3.0,90,0.00,,,0.00,Wunderground v.1.15,2013-05-31 09:50:00,
2013-05-31 05:56:00,58.8,56.2,30.10,ESE,122,0.0,3.0,91,0.00,,,0.00,Wunderground v.1.15,2013-05-31 09:56:00,
2013-05-31 06:02:00,58.7,55.8,30.11,ESE,122,0.0,3.0,90,0.00,,,0.00,Wunderground v.1.15,2013-05-31 10:02:00,
2013-05-31 06:08:00,58.6,55.7,30.10,ESE,122,0.0,3.0,90,0.00,,,0.00,Wunderground v.1.15,2013-05-31 10:08:00,
2013-05-31 06:13:00,58.5,55.9,30.10,ESE,122,0.0,3.0,91,0.00,,,0.00,Wunderground v.1.15,2013-05-31 10:13:00,
2013-05-31 06:18:00,58.5,55.9,30.10,ESE,122,0.0,3.0,91,0.00,,,0.00,Wunderground v.1.15,2013-05-31 10:18:00,
2013-05-31 06:24:00,58.4,55.8,30.10,ESE,122,0.0,3.0,91,0.00,,,0.00,Wunderground v.1.15,2013-05-31 10:24:00,
2013-05-31 06:29:00,58.5,55.9,30.10,ESE,122,0.0,3.0,91,0.00,,,0.00,Wunderground v.1.15,2013-05-31 10:29:00,
2013-05-31 06:35:00,58.5,55.6,30.10,ESE,122,0.0,3.0,90,0.00,,,0.00,Wunderground v.1.15,2013-05-31 10:35:00,
2013-05-31 06:40:00,58.8,55.9,30.10,ESE,122,0.0,3.0,90,0.00,,,0.00,Wunderground v.1.15,2013-05-31 10:40:00,
2013-05-31 06:45:00,59.4,56.5,30.10,ESE,122,0.0,3.0,90,0.00,,,0.00,Wunderground v.1.15,2013-05-31 10:45:00,
2013-05-31 06:51:00,60.0,57.1,30.10,ESE,122,0.0,3.0,90,0.00,,,0.00,Wunderground v.1.15,2013-05-31 10:51:00,
2013-05-31 06:56:00,60.7,57.4,30.10,ESE,122,0.0,3.0,89,0.00,,,0.00,Wunderground v.1.15,2013-05-31 10:56:00,
2013-05-31 07:01:00,61.5,57.9,30.10,ESE,122,0.0,3.0,88,0.00,,,0.00,Wunderground v.1.15,2013-05-31 11:01:00,
2013-05-31 07:06:00,62.5,58.6,30.10,ESE,122,0.0,3.0,87,0.00,,,0.00,Wunderground v.1.15,2013-05-31 11:06:00,
2013-05-31 07:12:00,63.7,58.8,30.10,ESE,122,0.0,3.0,84,0.00,,,0.00,Wunderground v.1.15,2013-05-31 11:12:00,
2013-05-31 07:17:00,64.3,59.4,30.10,ESE,122,0.0,3.0,84,0.00,,,0.00,Wunderground v.1.15,2013-05-31 11:17:00,
2013-05-31 07:22:00,64.8,59.5,30.10,ESE,122,0.0,3.0,83,0.00,,,0.00,Wunderground v.1.15,2013-05-31 11:22:00,
2013-05-31 07:28:00,65.6,60.0,30.10,ESE,122,0.0,3.0,82,0.00,,,0.00,Wunderground v.1.15,2013-05-31 11:28:00,
2013-05-31 07:33:00,66.3,60.3,30.10,ESE,122,0.0,3.0,81,0.00,,,0.00,Wunderground v.1.15,2013-05-31 11:33:00,
2013-05-31 07:38:00,67.0,60.3,30.10,ESE,122,0.0,3.0,79,0.00,,,0.00,Wunderground v.1.15,2013-05-31 11:38:00,
2013-05-31 07:43:00,67.7,61.0,30.10,ESE,122,0.0,3.0,79,0.00,,,0.00,Wunderground v.1.15,2013-05-31 11:43:00,
2013-05-31 07:49:00,68.9,61.4,30.10,ESE,122,0.0,3.0,77,0.00,,,0.00,Wunderground v.1.15,2013-05-31 11:49:00,
2013-05-31 07:55:00,70.1,62.2,30.10,ESE,122,0.0,3.0,76,0.00,,,0.00,Wunderground v.1.15,2013-05-31 11:55:00,
2013-05-31 08:00:00,70.8,61.7,30.10,ESE,122,0.0,3.0,73,0.00,,,0.00,Wunderground v.1.15,2013-05-31 12:00:00,
2013-05-31 08:05:00,71.2,61.3,30.10,ESE,122,0.0,3.0,71,0.00,,,0.00,Wunderground v.1.15,2013-05-31 12:05:00,
2013-05-31 08:11:00,71.6,62.5,30.10,ESE,122,0.0,3.0,73,0.00,,,0.00,Wunderground v.1.15,2013-05-31 12:11:00,
2013-05-31 08:17:00,72.6,62.7,30.11,ESE,122,0.0,3.0,71,0.00,,,0.00,Wunderground v.1.15,2013-05-31 12:17:00,
2013-05-31 08:22:00,72.7,62.3,30.11,ENE,77,1.0,3.0,70,0.00,,,0.00,Wunderground v.1.15,2013-05-31 12:22:00,
2013-05-31 08:28:00,72.9,61.7,30.11,ENE,77,1.0,3.0,68,0.00,,,0.00,Wunderground v.1.15,2013-05-31 12:28:00,
2013-05-31 08:33:00,73.1,61.9,30.11,ENE,77,1.0,3.0,68,0.00,,,0.00,Wunderground v.1.15,2013-05-31 12:33:00,
2013-05-31 08:39:00,73.5,62.7,30.11,ENE,77,1.0,3.0,69,0.00,,,0.00,Wunderground v.1.15,2013-05-31 12:39:00,
2013-05-31 08:44:00,74.2,61.7,30.10,ENE,77,0.0,3.0,65,0.00,,,0.00,Wunderground v.1.15,2013-05-31 12:44:00,
2013-05-31 08:50:00,75.2,62.6,30.10,ENE,77,0.0,3.0,65,0.00,,,0.00,Wunderground v.1.15,2013-05-31 12:50:00,
2013-05-31 08:56:00,75.7,62.2,30.11,East,98,1.0,3.0,63,0.00,,,0.00,Wunderground v.1.15,2013-05-31 12:56:00,
2013-05-31 09:01:00,76.3,62.3,30.11,WSW,253,1.0,3.0,62,0.00,,,0.00,Wunderground v.1.15,2013-05-31 13:01:00,
2013-05-31 09:06:00,76.5,63.0,30.11,SW,233,1.0,3.0,63,0.00,,,0.00,Wunderground v.1.15,2013-05-31 13:06:00,
2013-05-31 09:11:00,76.8,62.3,30.11,WNW,283,2.0,4.0,61,0.00,,,0.00,Wunderground v.1.15,2013-05-31 13:11:00,
2013-05-31 09:16:00,76.9,62.0,30.11,WNW,286,2.0,4.0,60,0.00,,,0.00,Wunderground v.1.15,2013-05-31 13:16:00,
2013-05-31 09:21:00,77.0,62.0,30.11,West,269,3.0,4.0,60,0.00,,,0.00,Wunderground v.1.15,2013-05-31 13:21:00,
2013-05-31 09:26:00,76.9,62.0,30.11,WSW,248,5.0,6.0,60,0.00,,,0.00,Wunderground v.1.15,2013-05-31 13:26:00,
2013-05-31 09:31:00,77.3,62.3,30.11,SW,234,5.0,6.0,60,0.00,,,0.00,Wunderground v.1.15,2013-05-31 13:31:00,
2013-05-31 09:36:00,77.8,61.8,30.10,West,272,4.0,8.0,58,0.00,,,0.00,Wunderground v.1.15,2013-05-31 13:36:00,
2013-05-31 09:41:00,77.6,62.1,30.10,WSW,246,6.0,8.0,59,0.00,,,0.00,Wunderground v.1.15,2013-05-31 13:41:00,
2013-05-31 09:46:00,77.9,61.9,30.10,SW,232,8.0,10.0,58,0.00,,,0.00,Wunderground v.1.15,2013-05-31 13:46:00,
2013-05-31 09:52:00,77.8,61.3,30.10,WSW,241,8.0,12.0,57,0.00,,,0.00,Wunderground v.1.15,2013-05-31 13:52:00,
2013-05-31 09:57:00,78.2,62.2,30.10,SW,230,7.0,12.0,58,0.00,,,0.00,Wunderground v.1.15,2013-05-31 13:57:00,
2013-05-31 10:03:00,78.3,61.3,30.10,SW,235,7.0,15.0,56,0.00,,,0.00,Wunderground v.1.15,2013-05-31 14:03:00,
2013-05-31 10:08:00,78.0,61.5,30.10,WNW,296,9.0,15.0,57,0.00,,,0.00,Wunderground v.1.15,2013-05-31 14:08:00,
2013-05-31 10:13:00,78.1,61.6,30.10,SW,235,8.0,11.0,57,0.00,,,0.00,Wunderground v.1.15,2013-05-31 14:13:00,
2013-05-31 10:18:00,78.5,61.5,30.09,WSW,252,8.0,11.0,56,0.00,,,0.00,Wunderground v.1.15,2013-05-31 14:18:00,
2013-05-31 10:24:00,78.7,61.7,30.09,WSW,237,7.0,8.0,56,0.00,,,0.00,Wunderground v.1.15,2013-05-31 14:24:00,
2013-05-31 10:29:00,79.3,62.2,30.09,West,264,7.0,8.0,56,0.00,,,0.00,Wunderground v.1.15,2013-05-31 14:29:00,
2013-05-31 10:34:00,79.4,61.3,30.10,WSW,245,7.0,12.0,54,0.00,,,0.00,Wunderground v.1.15,2013-05-31 14:34:00,
2013-05-31 10:40:00,79.2,61.1,30.10,WSW,249,8.0,10.0,54,0.00,,,0.00,Wunderground v.1.15,2013-05-31 14:40:00,
2013-05-31 10:46:00,79.3,61.2,30.09,WSW,256,8.0,10.0,54,0.00,,,0.00,Wunderground v.1.15,2013-05-31 14:46:00,
2013-05-31 10:51:00,79.4,61.8,30.10,WSW,248,8.0,11.0,55,0.00,,,0.00,Wunderground v.1.15,2013-05-31 14:51:00,
2013-05-31 10:56:00,79.3,61.7,30.10,SSW,213,8.0,11.0,55,0.00,,,0.00,Wunderground v.1.15,2013-05-31 14:56:00,
2013-05-31 11:02:00,79.7,61.6,30.09,WSW,243,8.0,9.0,54,0.00,,,0.00,Wunderground v.1.15,2013-05-31 15:02:00,
2013-05-31 11:07:00,80.3,62.1,30.10,SSW,212,7.0,9.0,54,0.00,,,0.00,Wunderground v.1.15,2013-05-31 15:07:00,
2013-05-31 11:13:00,80.2,61.5,30.09,WSW,237,8.0,10.0,53,0.00,,,0.00,Wunderground v.1.15,2013-05-31 15:13:00,
2013-05-31 11:18:00,80.6,61.9,30.09,SW,214,8.0,10.0,53,0.00,,,0.00,Wunderground v.1.15,2013-05-31 15:18:00,
2013-05-31 11:24:00,80.9,61.6,30.09,SW,232,7.0,7.0,52,0.00,,,0.00,Wunderground v.1.15,2013-05-31 15:24:00,
2013-05-31 11:29:00,81.3,61.4,30.09,SW,234,7.0,7.0,51,0.00,,,0.00,Wunderground v.1.15,2013-05-31 15:29:00,
2013-05-31 11:34:00,81.8,60.8,30.09,WSW,248,7.0,9.0,49,0.00,,,0.00,Wunderground v.1.15,2013-05-31 15:34:00,
2013-05-31 11:40:00,81.4,61.0,30.09,West,261,7.0,7.0,50,0.00,,,0.00,Wunderground v.1.15,2013-05-31 15:40:00,
2013-05-31 11:45:00,82.0,61.0,30.09,SW,216,6.0,8.0,49,0.00,,,0.00,Wunderground v.1.15,2013-05-31 15:45:00,
2013-05-31 11:51:00,82.1,59.9,30.09,WSW,241,6.0,6.0,47,0.00,,,0.00,Wunderground v.1.15,2013-05-31 15:51:00,
2013-05-31 11:56:00,82.1,60.5,30.08,West,266,7.0,11.0,48,0.00,,,0.00,Wunderground v.1.15,2013-05-31 15:56:00,
2013-05-31 12:02:00,82.4,61.3,30.08,West,269,6.0,8.0,49,0.00,,,0.00,Wunderground v.1.15,2013-05-31 16:02:00,
2013-05-31 12:08:00,82.3,62.4,30.08,NW,316,6.0,8.0,51,0.00,,,0.00,Wunderground v.1.15,2013-05-31 16:08:00,
2013-05-31 12:14:00,82.8,59.9,30.08,WSW,249,6.0,9.0,46,0.00,,,0.00,Wunderground v.1.15,2013-05-31 16:14:00,
2013-05-31 12:19:00,83.1,60.2,30.08,SW,232,6.0,9.0,46,0.00,,,0.00,Wunderground v.1.15,2013-05-31 16:19:00,
2013-05-31 12:25:00,83.3,61.0,30.08,West,260,6.0,7.0,47,0.00,,,0.00,Wunderground v.1.15,2013-05-31 16:25:00,
2013-05-31 12:31:00,83.3,59.1,30.08,West,262,6.0,6.0,44,0.00,,,0.00,Wunderground v.1.15,2013-05-31 16:31:00,
2013-05-31 12:37:00,84.1,60.5,30.08,West,271,5.0,6.0,45,0.00,,,0.00,Wunderground v.1.15,2013-05-31 16:37:00,
2013-05-31 12:43:00,84.6,60.9,30.07,WNW,283,4.0,6.0,45,0.00,,,0.00,Wunderground v.1.15,2013-05-31 16:43:00,
2013-05-31 12:49:00,83.9,59.7,30.07,SSE,167,5.0,8.0,44,0.00,,,0.00,Wunderground v.1.15,2013-05-31 16:49:00,
2013-05-31 12:54:00,84.0,61.0,30.07,SW,226,5.0,8.0,46,0.00,,,0.00,Wunderground v.1.15,2013-05-31 16:54:00,
2013-05-31 13:00:00,83.9,60.9,30.06,West,270,4.0,4.0,46,0.00,,,0.00,Wunderground v.1.15,2013-05-31 17:00:00,
2013-05-31 13:06:00,84.2,60.6,30.06,WSW,247,5.0,11.0,45,0.00,,,0.00,Wunderground v.1.15,2013-05-31 17:06:00,
2013-05-31 13:11:00,83.8,64.3,30.07,South,171,5.0,5.0,52,0.00,,,0.00,Wunderground v.1.15,2013-05-31 17:11:00,
2013-05-31 13:17:00,83.2,64.3,30.06,SSE,160,4.0,6.0,53,0.00,,,0.00,Wunderground v.1.15,2013-05-31 17:17:00,
2013-05-31 13:23:00,82.9,62.4,30.06,SW,230,4.0,6.0,50,0.00,,,0.00,Wunderground v.1.15,2013-05-31 17:23:00,
2013-05-31 13:29:00,83.0,64.1,30.06,SSE,167,4.0,6.0,53,0.00,,,0.00,Wunderground v.1.15,2013-05-31 17:29:00,
2013-05-31 13:35:00,83.1,64.2,30.06,SW,227,3.0,4.0,53,0.00,,,0.00,Wunderground v.1.15,2013-05-31 17:35:00,
2013-05-31 13:41:00,83.5,65.1,30.06,South,191,3.0,3.0,54,0.00,,,0.00,Wunderground v.1.15,2013-05-31 17:41:00,
2013-05-31 13:47:00,84.2,64.1,30.06,West,266,3.0,6.0,51,0.00,,,0.00,Wunderground v.1.15,2013-05-31 17:47:00,
2013-05-31 13:53:00,84.9,63.6,30.05,WSW,251,3.0,5.0,49,0.00,,,0.00,Wunderground v.1.15,2013-05-31 17:53:00,
2013-05-31 13:58:00,85.5,63.0,30.05,SSE,150,3.0,5.0,47,0.00,,,0.00,Wunderground v.1.15,2013-05-31 17:58:00,
2013-05-31 14:04:00,86.1,62.9,30.05,SSW,207,4.0,5.0,46,0.00,,,0.00,Wunderground v.1.15,2013-05-31 18:04:00,
2013-05-31 14:09:00,86.1,62.9,30.05,South,187,4.0,6.0,46,0.00,,,0.00,Wunderground v.1.15,2013-05-31 18:09:00,
2013-05-31 14:15:00,85.4,62.9,30.05,SSW,204,4.0,8.0,47,0.00,,,0.00,Wunderground v.1.15,2013-05-31 18:15:00,
2013-05-31 14:20:00,85.7,63.1,30.05,SW,215,5.0,6.0,47,0.00,,,0.00,Wunderground v.1.15,2013-05-31 18:20:00,
2013-05-31 14:26:00,85.1,62.6,30.05,ESE,123,5.0,9.0,47,0.00,,,0.00,Wunderground v.1.15,2013-05-31 18:26:00,
2013-05-31 14:32:00,84.9,62.4,30.04,SSE,164,4.0,7.0,47,0.00,,,0.00,Wunderground v.1.15,2013-05-31 18:32:00,
2013-05-31 14:38:00,84.9,62.4,30.04,SE,125,4.0,9.0,47,0.00,,,0.00,Wunderground v.1.15,2013-05-31 18:38:00,
2013-05-31 14:44:00,83.7,62.5,30.04,ESE,116,5.0,10.0,49,0.00,,,0.00,Wunderground v.1.15,2013-05-31 18:44:00,
2013-05-31 14:50:00,83.9,62.7,30.03,SE,127,7.0,11.0,49,0.00,,,0.00,Wunderground v.1.15,2013-05-31 18:50:00,
2013-05-31 14:56:00,84.6,62.7,30.03,East,100,8.0,12.0,48,0.00,,,0.00,Wunderground v.1.15,2013-05-31 18:56:00,
2013-05-31 15:02:00,85.0,63.1,30.03,SSE,154,8.0,8.0,48,0.00,,,0.00,Wunderground v.1.15,2013-05-31 19:02:00,
2013-05-31 15:07:00,84.7,62.8,30.03,ESE,116,8.0,10.0,48,0.00,,,0.00,Wunderground v.1.15,2013-05-31 19:07:00,
2013-05-31 15:13:00,84.9,62.4,30.03,South,172,7.0,8.0,47,0.00,,,0.00,Wunderground v.1.15,2013-05-31 19:13:00,
2013-05-31 15:18:00,84.8,62.3,30.02,South,179,6.0,8.0,47,0.00,,,0.00,Wunderground v.1.15,2013-05-31 19:18:00,
2013-05-31 15:23:00,85.4,61.6,30.03,SSE,151,6.0,10.0,45,0.00,,,0.00,Wunderground v.1.15,2013-05-31 19:23:00,
2013-05-31 15:28:00,85.5,62.4,30.02,SSE,165,7.0,10.0,46,0.00,,,0.00,Wunderground v.1.15,2013-05-31 19:28:00,
2013-05-31 15:33:00,85.8,61.4,30.02,SSE,154,6.0,8.0,44,0.00,,,0.00,Wunderground v.1.15,2013-05-31 19:33:00,
2013-05-31 15:39:00,86.0,62.2,30.02,SE,146,6.0,9.0,45,0.00,,,0.00,Wunderground v.1.15,2013-05-31 19:39:00,
2013-05-31 15:45:00,85.7,61.9,30.02,South,189,7.0,9.0,45,0.00,,,0.00,Wunderground v.1.15,2013-05-31 19:45:00,
2013-05-31 15:51:00,85.8,61.4,30.02,SSE,160,6.0,11.0,44,0.00,,,0.00,Wunderground v.1.15,2013-05-31 19:51:00,
2013-05-31 15:57:00,85.4,60.4,30.02,South,189,7.0,11.0,43,0.00,,,0.00,Wunderground v.1.15,2013-05-31 19:57:00,
2013-05-31 16:02:00,85.3,59.6,30.02,SSE,147,7.0,11.0,42,0.00,,,0.00,Wunderground v.1.15,2013-05-31 20:02:00,
2013-05-31 16:08:00,85.2,60.8,30.01,South,183,8.0,11.0,44,0.00,,,0.00,Wunderground v.1.15,2013-05-31 20:08:00,
2013-05-31 16:14:00,85.5,60.4,30.01,SSE,168,8.0,9.0,43,0.00,,,0.00,Wunderground v.1.15,2013-05-31 20:14:00,
2013-05-31 16:20:00,85.9,60.8,30.01,SSE,164,6.0,8.0,43,0.00,,,0.00,Wunderground v.1.15,2013-05-31 20:20:00,
2013-05-31 16:26:00,85.8,60.1,30.01,South,186,7.0,11.0,42,0.00,,,0.00,Wunderground v.1.15,2013-05-31 20:26:00,
2013-05-31 16:31:00,85.6,61.2,30.01,SSE,161,7.0,8.0,44,0.00,,,0.00,Wunderground v.1.15,2013-05-31 20:31:00,
2013-05-31 16:37:00,85.6,61.8,30.00,SW,228,7.0,12.0,45,0.00,,,0.00,Wunderground v.1.15,2013-05-31 20:37:00,
2013-05-31 16:43:00,85.6,61.8,30.00,SSE,160,7.0,10.0,45,0.00,,,0.00,Wunderground v.1.15,2013-05-31 20:43:00,
2013-05-31 16:49:00,85.8,62.0,30.00,ESE,112,7.0,11.0,45,0.00,,,0.00,Wunderground v.1.15,2013-05-31 20:49:00,
2013-05-31 16:55:00,85.1,62.6,30.00,SSE,166,7.0,8.0,47,0.00,,,0.00,Wunderground v.1.15,2013-05-31 20:55:00,
2013-05-31 17:00:00,85.2,62.7,30.00,South,178,7.0,7.0,47,0.00,,,0.00,Wunderground v.1.15,2013-05-31 21:00:00,
2013-05-31 17:05:00,85.2,63.3,30.00,South,183,6.0,7.0,48,0.00,,,0.00,Wunderground v.1.15,2013-05-31 21:05:00,
2013-05-31 17:11:00,85.1,63.2,30.00,SSE,157,6.0,11.0,48,0.00,,,0.00,Wunderground v.1.15,2013-05-31 21:11:00,
2013-05-31 17:17:00,84.7,62.2,29.99,South,172,8.0,15.0,47,0.00,,,0.00,Wunderground v.1.15,2013-05-31 21:17:00,
2013-05-31 17:23:00,84.6,62.1,29.99,SSW,208,8.0,13.0,47,0.00,,,0.00,Wunderground v.1.15,2013-05-31 21:23:00,
2013-05-31 17:28:00,84.7,62.2,29.99,SSW,204,7.0,13.0,47,0.00,,,0.00,Wunderground v.1.15,2013-05-31 21:28:00,
2013-05-31 17:34:00,84.7,62.2,29.99,SE,139,7.0,14.0,47,0.00,,,0.00,Wunderground v.1.15,2013-05-31 21:34:00,
2013-05-31 17:39:00,84.5,61.4,29.99,SSW,195,8.0,14.0,46,0.00,,,0.00,Wunderground v.1.15,2013-05-31 21:39:00,
2013-05-31 17:44:00,84.6,61.5,29.99,SSE,166,8.0,8.0,46,0.00,,,0.00,Wunderground v.1.15,2013-05-31 21:44:00,
2013-05-31 17:50:00,84.7,61.6,29.99,SE,145,6.0,6.0,46,0.00,,,0.00,Wunderground v.1.15,2013-05-31 21:50:00,
2013-05-31 17:56:00,84.7,62.2,29.99,SSW,196,6.0,10.0,47,0.00,,,0.00,Wunderground v.1.15,2013-05-31 21:56:00,
2013-05-31 18:01:00,84.4,62.6,29.99,SSE,167,6.0,7.0,48,0.00,,,0.00,Wunderground v.1.15,2013-05-31 22:01:00,
2013-05-31 18:07:00,84.1,62.9,29.99,SW,226,7.0,11.0,49,0.00,,,0.00,Wunderground v.1.15,2013-05-31 22:07:00,
2013-05-31 18:13:00,83.9,63.8,29.99,SW,218,7.0,11.0,51,0.00,,,0.00,Wunderground v.1.15,2013-05-31 22:13:00,
2013-05-31 18:19:00,83.7,63.1,29.99,SSW,213,7.0,11.0,50,0.00,,,0.00,Wunderground v.1.15,2013-05-31 22:19:00,
2013-05-31 18:25:00,83.7,63.1,29.99,SSE,162,7.0,13.0,50,0.00,,,0.00,Wunderground v.1.15,2013-05-31 22:25:00,
2013-05-31 18:30:00,83.5,63.5,29.99,WSW,248,7.0,7.0,51,0.00,,,0.00,Wunderground v.1.15,2013-05-31 22:30:00,
2013-05-31 18:36:00,83.1,63.1,29.99,SSW,202,7.0,11.0,51,0.00,,,0.00,Wunderground v.1.15,2013-05-31 22:36:00,
2013-05-31 18:41:00,82.9,62.9,29.99,SW,222,8.0,8.0,51,0.00,,,0.00,Wunderground v.1.15,2013-05-31 22:41:00,
2013-05-31 18:47:00,82.9,63.5,29.99,SW,226,7.0,10.0,52,0.00,,,0.00,Wunderground v.1.15,2013-05-31 22:47:00,
2013-05-31 18:53:00,82.8,63.4,29.99,SSW,192,6.0,7.0,52,0.00,,,0.00,Wunderground v.1.15,2013-05-31 22:53:00,
2013-05-31 18:59:00,82.7,63.8,29.99,SSE,155,6.0,8.0,53,0.00,,,0.00,Wunderground v.1.15,2013-05-31 22:59:00,
2013-05-31 19:05:00,82.6,63.2,29.99,South,179,6.0,10.0,52,0.00,,,0.00,Wunderground v.1.15,2013-05-31 23:05:00,
2013-05-31 19:11:00,82.5,63.1,29.99,South,187,6.0,9.0,52,0.00,,,0.00,Wunderground v.1.15,2013-05-31 23:11:00,
2013-05-31 19:16:00,82.3,62.9,29.99,SSE,165,5.0,9.0,52,0.00,,,0.00,Wunderground v.1.15,2013-05-31 23:16:00,
2013-05-31 19:22:00,82.0,63.2,29.99,SSE,156,5.0,10.0,53,0.00,,,0.00,Wunderground v.1.15,2013-05-31 23:22:00,
2013-05-31 19:28:00,81.6,63.3,29.99,SSE,168,7.0,12.0,54,0.00,,,0.00,Wunderground v.1.15,2013-05-31 23:28:00,
2013-05-31 19:33:00,81.4,63.2,29.99,SE,141,7.0,7.0,54,0.00,,,0.00,Wunderground v.1.15,2013-05-31 23:33:00,
2013-05-31 19:39:00,81.1,63.4,29.99,SSW,196,6.0,7.0,55,0.00,,,0.00,Wunderground v.1.15,2013-05-31 23:39:00,
2013-05-31 19:45:00,80.8,63.1,29.99,SSE,168,6.0,9.0,55,0.00,,,0.00,Wunderground v.1.15,2013-05-31 23:45:00,
2013-05-31 19:51:00,80.6,63.5,30.00,SSE,160,6.0,7.0,56,0.00,,,0.00,Wunderground v.1.15,2013-05-31 23:51:00,
2013-05-31 19:57:00,80.3,63.2,30.00,South,180,5.0,9.0,56,0.00,,,0.00,Wunderground v.1.15,2013-05-31 23:57:00,
2013-05-31 20:02:00,80.2,63.6,30.00,SSW,206,6.0,6.0,57,0.00,,,0.00,Wunderground v.1.15,2013-06-01 00:02:00,
2013-05-31 20:08:00,80.0,63.4,30.00,SSW,207,4.0,7.0,57,0.00,,,0.00,Wunderground v.1.15,2013-06-01 00:08:00,
2013-05-31 20:14:00,79.7,63.6,30.00,South,179,3.0,5.0,58,0.00,,,0.00,Wunderground v.1.15,2013-06-01 00:14:00,
2013-05-31 20:20:00,79.4,63.3,30.00,SE,145,4.0,6.0,58,0.00,,,0.00,Wunderground v.1.15,2013-06-01 00:20:00,
2013-05-31 20:25:00,79.3,63.2,30.00,SE,140,4.0,6.0,58,0.00,,,0.00,Wunderground v.1.15,2013-06-01 00:25:00,
2013-05-31 20:31:00,79.0,63.4,30.00,South,171,3.0,5.0,59,0.00,,,0.00,Wunderground v.1.15,2013-06-01 00:31:00,
2013-05-31 20:36:00,78.7,63.2,30.00,South,180,4.0,5.0,59,0.00,,,0.00,Wunderground v.1.15,2013-06-01 00:36:00,
2013-05-31 20:41:00,78.5,63.0,30.00,SSW,197,4.0,6.0,59,0.00,,,0.00,Wunderground v.1.15,2013-06-01 00:41:00,
2013-05-31 20:47:00,78.4,63.4,30.00,South,180,4.0,6.0,60,0.00,,,0.00,Wunderground v.1.15,2013-06-01 00:47:00,
2013-05-31 20:53:00,78.2,63.2,30.00,SSW,195,4.0,7.0,60,0.00,,,0.00,Wunderground v.1.15,2013-06-01 00:53:00,
2013-05-31 20:58:00,78.0,63.0,30.00,South,188,3.0,7.0,60,0.00,,,0.00,Wunderground v.1.15,2013-06-01 00:58:00,
2013-05-31 21:04:00,77.9,62.9,30.00,South,191,2.0,3.0,60,0.00,,,0.00,Wunderground v.1.15,2013-06-01 01:04:00,
2013-05-31 21:10:00,77.7,62.7,30.00,South,190,2.0,2.0,60,0.00,,,0.00,Wunderground v.1.15,2013-06-01 01:10:00,
2013-05-31 21:16:00,77.5,63.0,30.00,South,186,2.0,3.0,61,0.00,,,0.00,Wunderground v.1.15,2013-06-01 01:16:00,
2013-05-31 21:22:00,77.4,62.9,30.00,South,177,2.0,3.0,61,0.00,,,0.00,Wunderground v.1.15,2013-06-01 01:22:00,
2013-05-31 21:28:00,77.2,62.7,30.00,South,179,2.0,3.0,61,0.00,,,0.00,Wunderground v.1.15,2013-06-01 01:28:00,
2013-05-31 21:34:00,77.0,63.0,30.01,South,184,2.0,4.0,62,0.00,,,0.00,Wunderground v.1.15,2013-06-01 01:34:00,
2013-05-31 21:40:00,76.9,62.9,30.01,South,174,3.0,3.0,62,0.00,,,0.00,Wunderground v.1.15,2013-06-01 01:40:00,
2013-05-31 21:46:00,76.7,62.7,30.01,SSE,166,2.0,3.0,62,0.00,,,0.00,Wunderground v.1.15,2013-06-01 01:46:00,
2013-05-31 21:52:00,76.4,62.9,30.01,SSE,166,1.0,3.0,63,0.00,,,0.00,Wunderground v.1.15,2013-06-01 01:52:00,
2013-05-31 21:58:00,76.2,63.1,30.01,SSE,166,1.0,3.0,64,0.00,,,0.00,Wunderground v.1.15,2013-06-01 01:58:00,
2013-05-31 22:04:00,75.8,62.8,30.01,SSE,166,1.0,3.0,64,0.00,,,0.00,Wunderground v.1.15,2013-06-01 02:04:00,
2013-05-31 22:10:00,75.4,62.8,30.01,SSE,166,1.0,1.0,65,0.00,,,0.00,Wunderground v.1.15,2013-06-01 02:10:00,
2013-05-31 22:16:00,74.8,63.1,30.01,SSE,166,1.0,3.0,67,0.00,,,0.00,Wunderground v.1.15,2013-06-01 02:16:00,
2013-05-31 22:22:00,74.2,63.0,30.01,SE,141,1.0,3.0,68,0.00,,,0.00,Wunderground v.1.15,2013-06-01 02:22:00,
2013-05-31 22:28:00,73.7,62.9,30.01,SE,141,1.0,3.0,69,0.00,,,0.00,Wunderground v.1.15,2013-06-01 02:28:00,
2013-05-31 22:34:00,73.2,62.8,30.01,SE,141,1.0,3.0,70,0.00,,,0.00,Wunderground v.1.15,2013-06-01 02:34:00,
2013-05-31 22:40:00,72.9,62.5,30.01,SE,141,1.0,1.0,70,0.00,,,0.00,Wunderground v.1.15,2013-06-01 02:40:00,
2013-05-31 22:46:00,72.6,62.7,30.01,SE,141,0.0,3.0,71,0.00,,,0.00,Wunderground v.1.15,2013-06-01 02:46:00,
2013-05-31 22:51:00,72.3,62.8,30.01,SE,141,0.0,3.0,72,0.00,,,0.00,Wunderground v.1.15,2013-06-01 02:51:00,
2013-05-31 22:57:00,72.1,62.6,30.01,SE,141,0.0,3.0,72,0.00,,,0.00,Wunderground v.1.15,2013-06-01 02:57:00,
2013-05-31 23:02:00,71.8,62.7,30.01,SE,141,0.0,3.0,73,0.00,,,0.00,Wunderground v.1.15,2013-06-01 03:02:00,
2013-05-31 23:07:00,71.5,62.8,30.01,SE,141,0.0,3.0,74,0.00,,,0.00,Wunderground v.1.15,2013-06-01 03:07:00,
2013-05-31 23:13:00,71.2,62.5,30.01,SE,141,0.0,3.0,74,0.00,,,0.00,Wunderground v.1.15,2013-06-01 03:13:00,
2013-05-31 23:19:00,70.9,62.6,30.01,SE,141,0.0,3.0,75,0.00,,,0.00,Wunderground v.1.15,2013-06-01 03:19:00,
2013-05-31 23:25:00,70.5,62.2,30.01,SE,141,0.0,3.0,75,0.00,,,0.00,Wunderground v.1.15,2013-06-01 03:25:00,
2013-05-31 23:31:00,70.1,62.2,30.01,SE,141,0.0,3.0,76,0.00,,,0.00,Wunderground v.1.15,2013-06-01 03:31:00,
2013-05-31 23:37:00,69.7,62.2,30.00,SE,141,0.0,3.0,77,0.00,,,0.00,Wunderground v.1.15,2013-06-01 03:37:00,
2013-05-31 23:43:00,69.5,62.3,30.00,SE,141,0.0,3.0,78,0.00,,,0.00,Wunderground v.1.15,2013-06-01 03:43:00,
2013-05-31 23:49:00,69.3,62.5,30.00,SE,141,0.0,3.0,79,0.00,,,0.00,Wunderground v.1.15,2013-06-01 03:49:00,
2013-05-31 23:54:00,69.1,62.3,30.00,SE,141,0.0,3.0,79,0.00,,,0.00,Wunderground v.1.15,2013-06-01 03:54:00,